Regional Weather Roundup
Issued by NWS Northern Indiana

Home | Current Version | Previous Version | Text Only | Print | Product List | Glossary On
Versions: 1 2 3 4 5 6 7 8 9 10 11 12 13 14 15 16 17 18 19 20 21 22 23 24 25 26 27 28 29 30 31 32 33 34 35 36 37 38 39 40 41 42 43 44 45 46 47 48 49 50
000
ASUS43 KIWX 020910
RWRIWX

KIWX WEATHER ROUNDUP
NATIONAL WEATHER SERVICE NORTHERN INDIANA
500 AM EDT TUE JUN 02 2015

NOTE: "FAIR" INDICATES FEW OR NO CLOUDS BELOW 12,000 FEET WITH NO
SIGNIFICANT WEATHER AND/OR OBSTRUCTIONS TO VISIBILITY.

* THESE STATIONS ARE NOT UNDER NWS QUALITY CONTROL. THEY ALSO MAY NOT
  REPORT WEATHER SUCH AS PRECIPITATION OR FOG.

INZ001>027-021000-
NORTHERN INDIANA

CITY           SKY/WX    TMP DP  RH WIND       PRES   REMARKS
GARY*          CLEAR     43  42  99 CALM      30.19R
VALPARAISO     CLEAR     43  42  97 E5        30.19R
MICHIGAN CITY* CLEAR     41  41 100 CALM      30.19R FOG
LAPORTE*       CLEAR     46  46 100 CALM      30.19S
KNOX*          CLEAR     45  45 100 CALM      30.18S
SOUTH BEND     CLEAR     49  45  86 CALM      30.20R
GOSHEN         CLEAR     45  43  93 CALM      30.19R FOG
MONTICELLO*    CLEAR     48  48 100 CALM      30.16S
LOGANSPORT*    FOG       46  43  87 N5        30.17R VSB 1
ROCHESTER*     CLEAR     46  46 100 CALM      30.18S FOG
WARSAW*          N/A     45  43  93 CALM      30.19R FOG
ANGOLA*        CLEAR     41  28  60 CALM      30.18R
FORT WAYNE     PTCLDY    47  45  93 N3        30.16F
HUNTINGTON*    CLEAR     46  45  97 CALM      30.16S
PERU/GRISSOM   CLEAR     46  44  92 NE5       30.15R
MARION*        CLEAR     47  46  97 NE3       30.15F

$$
INZ028>050-021000-
CENTRAL INDIANA

CITY           SKY/WX    TMP DP  RH WIND       PRES   REMARKS
LAFAYETTE      CLEAR     48  46  93 CALM      30.15S
KOKOMO*        CLEAR     46  45  93 NE5       30.15S
MUNCIE*        CLEAR     48  46  93 NE7       30.13F
INDIANAPOLIS   PTCLDY    50  45  83 NE7       30.12S

$$
MIZ043>046-050>051-056>058-064>065-071>073-077>080-021000-
SOUTHWEST LOWER MICHIGAN

CITY           SKY/WX    TMP DP  RH WIND       PRES   REMARKS
BATTLE CREEK   CLEAR     44  41  89 CALM      30.20R
BENTON HARBOR  CLEAR     41  41 100 CALM      30.18R
COLDWATER*     CLEAR     41  41  98 CALM      30.18S FOG
HILLSDALE*     CLEAR     42  42 100 CALM      30.18R
HOLLAND        CLEAR     44  38  79 NE3       30.20S
GRAND RAPIDS   CLEAR     42  38  85 NE5       30.21R
KALAMAZOO      CLEAR     45  41  86 CALM      30.20R
STURGIS*       CLEAR     45  45 100 CALM      30.18S
THREE RIVERS*  FAIR      46  44  92 CALM      30.20R

$$
OHZ001>008-015>018-024>025-021000-
NORTHWEST OHIO

CITY           SKY/WX    TMP DP  RH WIND       PRES   REMARKS
WAUSEON*       FAIR      45  45 100 NE5       30.18R
DEFIANCE       CLEAR     47  44  90 N3        30.18R
FINDLAY        CLEAR     49  46  90 N7        30.14S
TOLEDO EXPRESS CLEAR     46  41  82 N3        30.17R
TOLEDO METCALF CLEAR     50  42  74 N6        30.17S
LIMA           PTCLDY    47  46  97 N3        30.14F FOG

$$
AND FOR LAKE MICHIGAN COASTAL AND OPEN LAKE BUOY OBSERVATIONS

STATION/POSITION TEMP    WIND        PRES    VSBY  WAVE
                 AIR SEA DIR/SP/G                  HT/PER
                 (F)     (DEG/KT/KT) (MB)    (MI)  (FT/S)
CALUMET HARBOR    48     350/  2/  3   N/A
MICHIGAN CITY     47     120/  2/  3   N/A
BURNS HARBOR             200/  3/  4 1022.4S
SAINT JOSEPH      48      CALM  /  3 1022.0F
SOUTH LAKE BUOY   43 38   50/  6/  6 1022.9R         1/ 4
4 MI NW BRIDGMAN  52 55  170/ 10/ 12   N/A           1/ 4
MICHIGAN CITY     50 56   CALM  /  2   N/A           2/ 5

$$
&&


USA.gov is the U.S. government's official web portal to all federal, state and local government web resources and services.